Date,TemperatureHighF,TemperatureAvgF,TemperatureLowF,DewpointHighF,DewpointAvgF,DewpointLowF,HumidityHigh,HumidityAvg,HumidityLow,PressureMaxIn,PressureMinIn,WindSpeedMaxMPH,WindSpeedAvgMPH,GustSpeedMaxMPH,PrecipitationSumIn
2013-1-1,36.0,30.2,17.4,23.6,15.0,3.1,68,53,40,29.97,29.76,5,2,21,0.00
2013-1-2,28.6,18.7,10.8,12.1,5.3,-2.5,65,55,43,30.14,29.94,4,1,21,0.00
2013-1-3,19.2,10.2,2.5,8.4,-2.4,-9.8,66,56,47,30.18,30.03,2,1,13,0.00
2013-1-4,39.0,28.4,15.1,23.0,17.4,7.7,75,63,46,30.03,29.85,3,1,15,0.00
2013-1-5,41.9,32.4,22.6,21.9,18.3,13.6,74,57,35,30.30,29.89,4,1,17,0.00
2013-1-6,41.7,31.9,23.4,26.2,23.2,15.7,85,71,51,30.26,29.99,3,0,12,0.04
2013-1-7,38.3,32.6,23.2,27.5,21.8,14.7,82,65,49,30.45,30.01,4,2,15,0.00
2013-1-8,45.3,34.8,23.2,26.4,23.1,15.2,80,63,45,30.42,30.32,3,1,13,0.00
2013-1-9,43.5,35.8,25.0,36.0,28.2,21.2,87,74,57,30.45,30.06,4,1,8,0.00
2013-1-10,45.5,39.7,29.8,29.6,25.3,23.4,79,57,44,30.60,30.11,6,2,21,0.00
2013-1-11,39.4,32.8,26.1,35.4,28.0,22.1,100,83,64,30.59,30.27,2,0,4,0.07
2013-1-12,41.4,37.7,34.9,41.4,37.7,34.7,100,100,100,30.28,30.18,2,0,4,0.02
2013-1-13,48.9,42.4,39.2,48.7,42.4,39.0,100,100,100,30.21,30.11,2,0,4,0.00
2013-1-14,59.5,49.3,39.7,53.1,43.3,29.3,100,81,45,30.31,29.91,4,1,11,0.00
2013-1-15,41.0,36.6,30.6,29.5,26.4,24.5,80,67,55,30.39,30.28,3,0,10,0.00
2013-1-16,32.5,31.6,28.8,32.5,30.0,25.0,100,94,74,30.30,29.88,2,0,4,0.73
2013-1-17,41.2,32.9,28.2,34.7,28.0,13.7,100,84,54,30.15,29.88,3,1,17,0.18
2013-1-18,28.0,21.1,16.0,15.4,4.2,-4.0,67,48,32,30.49,30.10,5,2,21,0.01
2013-1-19,46.8,35.5,20.3,32.9,24.0,8.3,80,63,46,30.42,29.93,4,2,14,0.22
2013-1-20,51.6,39.5,27.3,33.5,26.4,9.0,79,60,36,29.98,29.61,5,2,19,0.00
2013-1-21,29.5,23.7,19.6,20.0,11.6,5.5,94,61,41,30.15,29.84,4,1,14,0.00
2013-1-22,51.6,18.3,10.8,19.7,7.8,-1.9,96,66,36,30.13,29.81,4,1,15,0.00
2013-1-23,15.4,9.4,5.0,1.1,-5.8,-10.3,70,50,33,30.19,30.11,4,2,17,0.00
2013-1-24,18.9,9.3,0.5,-4.3,-8.0,-10.8,59,45,29,30.28,30.11,6,2,18,0.00
2013-1-25,24.1,14.9,6.3,11.4,-4.5,-10.5,81,43,23,30.35,30.10,4,1,16,0.00
2013-1-26,20.1,12.0,6.8,12.8,7.6,4.2,91,83,52,30.13,30.05,4,1,11,0.00
2013-1-27,29.1,18.3,0.0,5.6,2.6,-2.4,68,50,31,30.45,29.73,4,1,13,0.00
2013-1-28,31.1,22.9,17.4,24.8,11.5,3.6,97,63,40,30.00,29.57,2,0,5,0.00
2013-1-29,33.8,29.2,23.5,32.5,28.3,22.8,100,96,90,29.75,29.57,1,0,2,0.04
2013-1-30,58.6,43.8,32.5,58.5,43.7,32.5,100,99,95,29.70,29.00,8,2,30,0.15
2013-1-31,60.3,46.7,29.3,60.1,38.2,15.9,100,74,44,29.15,28.54,7,4,36,0.37
2013-2-1,34.0,27.5,20.5,17.6,9.7,-13.3,61,47,18,29.64,29.15,26,2,26,0.00
2013-2-2,29.1,20.3,15.3,8.9,6.4,3.8,63,55,40,29.79,29.64,3,1,11,0.00
2013-2-3,27.3,24.0,18.1,22.9,20.9,13.4,95,88,62,29.60,29.28,2,0,5,0.00
2013-2-4,29.8,23.3,18.5,22.7,12.7,7.6,96,66,42,29.44,29.27,6,2,17,0.00
2013-2-5,29.7,23.8,19.8,21.9,15.4,10.2,92,71,51,29.57,29.48,2,0,6,0.00
2013-2-6,39.2,29.0,22.1,28.4,19.3,5.2,96,70,43,29.84,29.47,3,1,14,0.01
2013-2-7,32.0,22.9,14.5,12.6,5.4,2.1,69,48,29,30.07,29.85,3,1,10,0.01
2013-2-8,31.8,23.0,16.9,26.5,19.6,8.5,98,87,55,30.03,29.17,7,2,22,0.43
2013-2-9,28.9,18.6,13.3,28.0,15.6,3.8,98,89,64,29.75,29.15,9,4,28,0.06
2013-2-10,41.9,23.2,7.3,11.5,4.8,-1.3,73,48,21,29.94,29.75,3,0,12,0.00
2013-2-11,39.2,29.6,20.1,39.0,25.3,6.2,100,85,53,29.90,29.17,3,0,7,0.26
2013-2-12,44.4,38.4,33.1,41.2,30.4,26.7,100,74,55,29.44,29.17,4,2,100,0.12
2013-2-13,43.7,33.4,21.9,27.6,24.7,11.2,86,71,51,29.42,29.24,2,0,99,0.00
2013-2-14,41.0,34.3,26.2,26.0,23.3,20.0,79,65,49,29.55,29.27,2,1,26,0.00
2013-2-15,53.1,40.0,26.6,36.1,31.3,22.5,100,73,51,29.55,29.45,4,1,9,0.01
2013-2-16,36.9,33.3,31.3,33.0,31.1,29.3,99,92,75,29.51,29.44,3,1,11,0.01
2013-2-17,28.2,20.9,15.8,21.4,10.4,0.8,94,65,45,29.27,28.96,9,4,30,0.00
2013-2-18,30.9,18.2,12.6,5.2,1.7,-1.1,58,49,27,29.55,29.25,6,4,24,0.00
2013-2-19,48.2,34.6,20.7,40.8,24.7,3.5,100,69,45,29.72,29.14,3,1,8,0.19
2013-2-20,39.6,31.1,24.8,39.6,20.8,11.1,100,67,45,29.34,29.10,5,2,20,0.00
2013-2-21,34.7,26.8,22.8,16.7,14.4,10.9,75,59,43,29.75,29.32,6,2,18,0.00
2013-2-22,42.1,30.8,20.1,26.1,21.3,16.1,87,69,42,29.93,29.75,3,1,11,0.02
2013-2-23,38.3,32.8,27.3,32.2,28.4,22.6,98,84,75,29.88,29.59,2,1,7,0.00
2013-2-24,34.3,32.9,30.9,34.3,32.9,30.9,100,100,100,29.47,29.26,3,0,11,0.20
2013-2-25,41.0,33.8,26.8,36.2,32.2,26.8,100,94,75,29.80,29.45,2,0,6,0.41
2013-2-26,48.0,35.5,28.0,39.4,31.0,28.1,100,85,61,29.89,29.71,2,0,12,0.24
2013-2-27,40.8,37.0,33.1,40.8,36.7,30.7,100,99,90,29.71,29.13,4,2,18,1.26
2013-2-28,46.8,37.3,32.2,39.8,35.6,32.0,100,94,76,29.20,29.09,3,0,7,0.00
2013-3-1,45.0,36.9,30.2,35.6,31.0,17.0,100,80,43,29.25,29.09,172,3,172,0.14
2013-3-2,79.7,37.3,28.4,32.5,27.4,-9.6,84,70,18,29.24,29.18,7,1,99,0.05
2013-3-3,42.3,34.7,31.3,32.6,29.0,25.3,97,80,65,29.21,29.12,3,1,10,0.00
2013-3-4,41.2,33.6,27.5,27.2,24.8,20.3,81,70,53,29.31,29.15,5,2,17,0.00
2013-3-5,46.9,36.0,29.7,31.9,27.7,23.4,92,72,53,29.63,29.31,3,1,11,0.00
2013-3-6,40.1,35.5,33.3,36.5,33.4,31.4,100,92,74,29.66,29.59,4,2,20,0.14
2013-3-7,30.7,30.4,30.2,30.3,29.8,28.3,99,98,92,29.60,29.57,0,0,0,0.06
2013-3-8,34.2,33.5,30.2,33.7,33.0,29.7,99,98,97,29.64,29.57,1,0,5,0.08
2013-8-17,0.0,0.0,0.0,32.8,32.8,32.8,0,0,100,29.86,29.79,0,0,0,0.08
2013-8-18,0.0,0.0,0.0,32.8,32.8,32.8,0,0,100,29.86,29.77,0,0,0,0.08